Coleman, TX

1:19 PM CDT on May 25, 2017 (GMT -0500)
Coleman Municipal

Weather History for KCOM - November, 2012

Change the Weather History Date:

Sunday, November 18, 2012

  Actual Average (KABI) Record (KABI)
Temperature  
Mean Temperature 58 °F -  
Max Temperature 68 °F 63 °F 87 °F (1981)
Min Temperature 47 °F 42 °F 16 °F (1951)
Degree Days  
Heating Degree Days 8    
Growing Degree Days 8 (Base 50)    
Moisture  
Dew Point 42 °F    
Average Humidity 54    
Maximum Humidity 73    
Minimum Humidity 44    
Precipitation  
Precipitation 0.00 in - - ()
Sea Level Pressure  
Sea Level Pressure 30.21 in    
Wind  
Wind Speed 8 mph (South)    
Max Wind Speed 20 mph    
Max Gust Speed 26 mph    
Visibility 10 miles    
Events      
Averages and records for this station are not official NWS values.
T = Trace of Precipitation, MM = Missing Value Source: NWS Daily Summary

Daily Weather History Graph

Daily Weather History Graph

Search for Another Location

Airport or City:

Trip Planner

Search our weather history database for the weather conditions in past years. The results will help you decide how hot, cold, wet, or windy it might be!

Date:

Astronomy

Nov. 18, 2012 Rise Set
Actual Time 7:09 AM CST 5:36 PM CST
Civil Twilight 6:43 AM CST 6:02 PM CST
Nautical Twilight 6:13 AM CST 6:32 PM CST
Astronomical Twilight 5:44 AM CST 7:01 PM CST
Moon 11:40 AM CST (11/18) 10:52 PM CST (11/18)
Length of Visible Light 11h 19m
Length of Day
10h 27m
Waxing Crescent, 30% of the Moon is Illuminated
Nov 18
Waxing Crescent
Nov 20
First Quarter
Nov 28
Full
Dec 6
Last Quarter
Dec 13
New

Hourly Weather History & Observations

Time (CST) Temp. Dew Point Humidity Pressure Visibility Wind Dir Wind Speed Gust Speed Precip Events Conditions
12:15 AM 48.2 °F 27.3 °F 44% 30.25 in 10.0 mi South 4.6 mph - N/A   Clear
12:35 AM 47.8 °F 27.7 °F 46% 30.25 in 10.0 mi South 4.6 mph - N/A   Clear
12:55 AM 48.4 °F 28.4 °F 46% 30.24 in 10.0 mi South 3.5 mph - N/A   Clear
1:15 AM 49.8 °F 29.1 °F 45% 30.23 in 10.0 mi South 4.6 mph - N/A   Clear
1:35 AM 50.4 °F 29.3 °F 44% 30.22 in 10.0 mi South 3.5 mph - N/A   Clear
1:55 AM 50.5 °F 29.7 °F 45% 30.21 in 10.0 mi SSE 5.8 mph - N/A   Clear
2:15 AM 50.9 °F 29.8 °F 44% 30.20 in 10.0 mi SSE 6.9 mph - N/A   Clear
2:35 AM 51.3 °F 30.0 °F 44% 30.21 in 10.0 mi South 3.5 mph - N/A   Clear
2:55 AM 50.9 °F 30.4 °F 45% 30.22 in 10.0 mi SSW 4.6 mph - N/A   Clear
3:15 AM 50.4 °F 30.6 °F 47% 30.22 in 10.0 mi South 4.6 mph - N/A   Scattered Clouds
3:35 AM 49.1 °F 30.2 °F 48% 30.21 in 10.0 mi South 4.6 mph - N/A   Scattered Clouds
3:55 AM 48.2 °F 30.2 °F 50% 30.21 in 10.0 mi South 4.6 mph - N/A   Clear
4:15 AM 47.7 °F 30.4 °F 51% 30.20 in 10.0 mi South 4.6 mph - N/A   Clear
4:55 AM 49.8 °F 30.9 °F 48% 30.20 in 10.0 mi South 6.9 mph - N/A   Scattered Clouds
5:15 AM 50.4 °F 31.1 °F 48% 30.20 in 10.0 mi South 5.8 mph - N/A   Scattered Clouds
5:35 AM 49.8 °F 31.1 °F 49% 30.21 in 10.0 mi South 5.8 mph - N/A   Clear
5:55 AM 48.9 °F 31.3 °F 51% 30.21 in 10.0 mi South 6.9 mph - N/A   Scattered Clouds
6:15 AM 48.6 °F 31.8 °F 52% 30.22 in 10.0 mi South 6.9 mph - N/A   Mostly Cloudy
6:35 AM 49.3 °F 32.5 °F 53% 30.22 in 10.0 mi South 8.1 mph - N/A   Overcast
6:55 AM 50.4 °F 33.6 °F 53% 30.22 in 10.0 mi SSE 9.2 mph - N/A   Overcast
7:15 AM 50.5 °F 34.3 °F 54% 30.22 in 10.0 mi SSE 8.1 mph - N/A   Scattered Clouds
7:55 AM 50.7 °F 35.8 °F 57% 30.24 in 10.0 mi South 10.4 mph - N/A   Clear
8:15 AM 52.0 °F 36.5 °F 56% 30.24 in 10.0 mi SSE 8.1 mph - N/A   Clear
8:35 AM 53.2 °F 38.3 °F 57% 30.25 in 10.0 mi South 11.5 mph - N/A   Clear
8:55 AM 54.9 °F 40.5 °F 58% 30.25 in 10.0 mi South 12.7 mph 18.4 mph N/A   Clear
9:15 AM 56.5 °F 42.6 °F 60% 30.25 in 10.0 mi South 13.8 mph 19.6 mph N/A   Clear
9:35 AM 57.9 °F 44.1 °F 60% 30.25 in 10.0 mi South 13.8 mph 19.6 mph N/A   Clear
9:55 AM 59.5 °F 45.1 °F 59% 30.25 in 10.0 mi South 17.3 mph 20.7 mph N/A   Clear
10:15 AM 60.6 °F 45.1 °F 57% 30.25 in 7.0 mi South 13.8 mph 19.6 mph N/A   Scattered Clouds
10:35 AM 63.0 °F 45.7 °F 53% 30.24 in 10.0 mi South 19.6 mph 25.3 mph N/A   Scattered Clouds
10:55 AM 64.0 °F 46.0 °F 52% 30.23 in 10.0 mi South 19.6 mph 26.5 mph N/A   Clear
11:15 AM 64.2 °F 46.4 °F 52% 30.22 in 10.0 mi South 19.6 mph - N/A   Clear
11:55 AM 66.4 °F 46.6 °F 49% 30.20 in 10.0 mi South 18.4 mph 21.9 mph N/A   Clear
12:15 PM 67.1 °F 46.9 °F 48% 30.19 in 10.0 mi South 15.0 mph 21.9 mph N/A   Clear
12:35 PM 67.5 °F 47.1 °F 48% 30.20 in 10.0 mi SSW 15.0 mph 24.2 mph N/A   Clear
12:55 PM 68.0 °F 46.8 °F 47% 30.18 in 10.0 mi South 15.0 mph - N/A   Clear
1:15 PM 68.2 °F 46.6 °F 46% 30.18 in 10.0 mi South 18.4 mph 25.3 mph N/A   Clear
1:35 PM 68.2 °F 46.8 °F 46% 30.17 in 10.0 mi South 19.6 mph 24.2 mph N/A   Clear
1:55 PM 68.2 °F 47.8 °F 48% 30.17 in 10.0 mi SSW 19.6 mph 26.5 mph N/A   Clear
2:15 PM 67.5 °F 48.2 °F 50% 30.17 in 10.0 mi SSW 15.0 mph 21.9 mph N/A   Clear
2:35 PM 66.9 °F 48.2 °F 51% 30.16 in 10.0 mi SSW 16.1 mph - N/A   Mostly Cloudy
2:55 PM 67.1 °F 48.4 °F 51% 30.15 in 10.0 mi South 15.0 mph 21.9 mph N/A   Mostly Cloudy
3:15 PM 67.1 °F 48.4 °F 51% 30.15 in 10.0 mi South 12.7 mph 16.1 mph N/A   Scattered Clouds
3:55 PM 67.8 °F 48.4 °F 50% 30.16 in 10.0 mi South 15.0 mph - N/A   Clear
4:15 PM 67.5 °F 48.2 °F 50% 30.17 in 10.0 mi South 15.0 mph 19.6 mph N/A   Scattered Clouds
4:55 PM 66.2 °F 48.4 °F 53% 30.18 in 10.0 mi South 15.0 mph - N/A   Scattered Clouds
5:15 PM 65.5 °F 48.6 °F 54% 30.18 in 10.0 mi South 12.7 mph - N/A   Mostly Cloudy
5:35 PM 64.9 °F 48.6 °F 55% 30.18 in 10.0 mi South 10.4 mph - N/A   Scattered Clouds
5:55 PM 64.4 °F 48.7 °F 57% 30.18 in 10.0 mi South 9.2 mph - N/A   Scattered Clouds
6:15 PM 63.7 °F 48.7 °F 58% 30.18 in 10.0 mi SSE 6.9 mph - N/A   Scattered Clouds
6:35 PM 63.3 °F 48.9 °F 59% 30.18 in 10.0 mi South 6.9 mph - N/A   Scattered Clouds
6:55 PM 63.5 °F 49.3 °F 60% 30.19 in 10.0 mi South 9.2 mph - N/A   Scattered Clouds
7:15 PM 63.5 °F 49.5 °F 60% 30.20 in 10.0 mi South 9.2 mph - N/A   Scattered Clouds
7:55 PM 63.3 °F 49.6 °F 61% 30.20 in 10.0 mi South 6.9 mph - N/A   Overcast
8:15 PM 62.8 °F 49.6 °F 62% 30.19 in 10.0 mi South 6.9 mph - N/A   Mostly Cloudy
8:35 PM 61.9 °F 49.5 °F 64% 30.20 in 10.0 mi South 6.9 mph - N/A   Scattered Clouds
8:55 PM 61.3 °F 49.5 °F 65% 30.20 in 10.0 mi South 3.5 mph - N/A   Mostly Cloudy
9:15 PM 60.6 °F 49.3 °F 66% 30.21 in 10.0 mi SSW 3.5 mph - N/A   Scattered Clouds
9:35 PM 60.4 °F 49.5 °F 67% 30.21 in 10.0 mi SSW 4.6 mph - N/A   Mostly Cloudy
9:55 PM 60.8 °F 49.6 °F 67% 30.20 in 10.0 mi South 5.8 mph - N/A   Overcast
10:15 PM 60.4 °F 49.5 °F 67% 30.20 in 10.0 mi South 5.8 mph - N/A   Overcast
10:35 PM 60.3 °F 49.5 °F 68% 30.19 in 10.0 mi South 8.1 mph - N/A   Scattered Clouds
10:55 PM 59.7 °F 49.3 °F 68% 30.19 in 10.0 mi South 6.9 mph - N/A   Clear
11:15 PM 59.4 °F 49.3 °F 69% 30.20 in 10.0 mi South 4.6 mph - N/A   Clear
11:35 PM 58.3 °F 49.1 °F 71% 30.20 in 10.0 mi SSW 3.5 mph - N/A   Clear
11:55 PM 57.6 °F 49.1 °F 73% 30.20 in 10.0 mi SSW 4.6 mph - N/A   Clear